When you browse on this site, cookies collect data to enhance your experience and personalize the content and advertising you see.
Visit our Privacy Policy to learn more. By continuing to use the site, you agree to this use of cookies and data.
  • In United Kingdom
  • List of Countries
  • For 7 days
  • Water Temperature
  • Weather Map
  • Weather Widgets
  • user-avatar
    Login

    Hourly Weather Hasselt

    Today, 19 October, Saturday

    Time Temperature Precipitation Wind Pressure Humidity
    00:00 +12°C° 0 mm 5 mps 751 mmHg 68%
    01:00 +12°C° 0 mm 5 mps 751 mmHg 70%
    02:00 +12°C° 0 mm 5 mps 751 mmHg 72%
    03:00 +12°C° 0 mm 5 mps 750 mmHg 75%
    04:00 +12°C° 0.1 mm 5 mps 750 mmHg 78%
    05:00 +12°C° 0.1 mm 4 mps 750 mmHg 81%
    06:00 +12°C° 0.1 mm 4 mps 750 mmHg 85%
    07:00 +12°C° 0.2 mm 4 mps 750 mmHg 84%
    08:00 +12°C° 0.2 mm 5 mps 750 mmHg 84%
    09:00 +13°C° 0.2 mm 5 mps 750 mmHg 84%
    10:00 +13°C° 0.3 mm 5 mps 750 mmHg 82%
    11:00 +14°C° 0.3 mm 5 mps 750 mmHg 81%
    12:00 +14°C° 0.3 mm 5 mps 750 mmHg 80%
    13:00 +14°C° 0.4 mm 5 mps 750 mmHg 81%
    14:00 +14°C° 0.4 mm 4 mps 750 mmHg 81%
    15:00 +14°C° 0.4 mm 4 mps 750 mmHg 82%
    16:00 +13°C° 0.2 mm 4 mps 750 mmHg 85%
    17:00 +12°C° 0.2 mm 3 mps 751 mmHg 88%
    18:00 +11°C° 0.2 mm 3 mps 751 mmHg 91%
    19:00 +11°C° 0 mm 3 mps 751 mmHg 92%
    20:00 +11°C° 0 mm 3 mps 752 mmHg 93%
    21:00 +10°C° 0 mm 2 mps 752 mmHg 94%
    22:00 +10°C° 0 mm 2 mps 752 mmHg 94%
    23:00 +10°C° 0 mm 2 mps 752 mmHg 94%

    Tomorrow, 20 October, Sunday

    Time Temperature Precipitation Wind Pressure Humidity
    00:00 +11°C° 0 mm 1 mps 752 mmHg 94%
    01:00 +12°C° 0.1 mm 1 mps 752 mmHg 94%
    02:00 +12°C° 0.1 mm 1 mps 752 mmHg 94%
    03:00 +11°C° 0.1 mm 0 mps 752 mmHg 93%
    04:00 +12°C° 0.8 mm 1 mps 751 mmHg 94%
    05:00 +12°C° 0.8 mm 1 mps 751 mmHg 96%
    06:00 +12°C° 0.8 mm 2 mps 751 mmHg 97%
    07:00 +12°C° 0.8 mm 2 mps 751 mmHg 95%
    08:00 +11°C° 0.8 mm 3 mps 751 mmHg 94%
    09:00 +11°C° 0.8 mm 4 mps 751 mmHg 93%
    10:00 +11°C° 3.1 mm 4 mps 752 mmHg 94%
    11:00 +11°C° 3.1 mm 4 mps 752 mmHg 94%
    12:00 +9°C° 3.1 mm 5 mps 752 mmHg 94%
    13:00 +9°C° 1.4 mm 5 mps 752 mmHg 94%
    14:00 +9°C° 1.4 mm 5 mps 752 mmHg 94%
    15:00 +10°C° 1.4 mm 5 mps 752 mmHg 94%
    16:00 +9°C° 1.1 mm 5 mps 752 mmHg 95%
    17:00 +9°C° 1.1 mm 5 mps 752 mmHg 96%
    18:00 +9°C° 1.1 mm 5 mps 752 mmHg 97%
    19:00 +11°C° 1.2 mm 4 mps 752 mmHg 97%
    20:00 +11°C° 1.2 mm 4 mps 752 mmHg 97%
    21:00 +11°C° 1.2 mm 3 mps 752 mmHg 97%
    22:00 +11°C° 0.5 mm 3 mps 753 mmHg 97%
    23:00 +11°C° 0.5 mm 3 mps 753 mmHg 97%

    Day after tomorrow, 21 October, Monday

    Time Temperature Precipitation Wind Pressure Humidity
    00:00 +12°C° 0.5 mm 2 mps 753 mmHg 98%
    01:00 +12°C° 0.1 mm 2 mps 753 mmHg 98%
    02:00 +12°C° 0.1 mm 2 mps 753 mmHg 98%
    03:00 +10°C° 0.1 mm 2 mps 753 mmHg 98%
    04:00 +10°C° 0 mm 2 mps 754 mmHg 98%
    05:00 +12°C° 0 mm 2 mps 754 mmHg 97%
    06:00 +12°C° 0 mm 2 mps 755 mmHg 97%
    07:00 +13°C° 0 mm 2 mps 755 mmHg 92%
    08:00 +12°C° 0 mm 3 mps 756 mmHg 88%
    09:00 +13°C° 0 mm 3 mps 756 mmHg 84%
    10:00 +14°C° 0 mm 3 mps 757 mmHg 82%
    11:00 +14°C° 0 mm 4 mps 757 mmHg 80%
    12:00 +14°C° 0 mm 4 mps 758 mmHg 77%
    13:00 +14°C° 0.1 mm 4 mps 758 mmHg 78%
    14:00 +14°C° 0.1 mm 4 mps 758 mmHg 78%
    15:00 +14°C° 0.1 mm 4 mps 758 mmHg 78%
    16:00 +13°C° 0 mm 4 mps 759 mmHg 81%
    17:00 +12°C° 0 mm 4 mps 759 mmHg 83%
    18:00 +11°C° 0 mm 4 mps 760 mmHg 85%
    19:00 +11°C° 0 mm 3 mps 760 mmHg 86%
    20:00 +10°C° 0 mm 3 mps 760 mmHg 88%
    21:00 +10°C° 0 mm 3 mps 761 mmHg 90%
    22:00 +10°C° 0 mm 3 mps 761 mmHg 89%
    23:00 +9°C° 0 mm 3 mps 761 mmHg 89%

    22 October, Tuesday

    Time Temperature Precipitation Wind Pressure Humidity
    00:00 +8°C° 0 mm 4 mps 762 mmHg 88%
    01:00 +9°C° 0 mm 3 mps 762 mmHg 89%
    02:00 +9°C° 0 mm 3 mps 762 mmHg 90%
    03:00 +9°C° 0 mm 3 mps 762 mmHg 90%
    04:00 +8°C° 0 mm 3 mps 762 mmHg 91%
    05:00 +8°C° 0 mm 3 mps 762 mmHg 91%
    06:00 +8°C° 0 mm 3 mps 762 mmHg 92%
    07:00 +9°C° 0 mm 3 mps 763 mmHg 88%
    08:00 +10°C° 0 mm 3 mps 763 mmHg 85%
    09:00 +11°C° 0 mm 3 mps 763 mmHg 81%
    10:00 +12°C° 0 mm 3 mps 763 mmHg 79%
    11:00 +13°C° 0 mm 3 mps 763 mmHg 76%
    12:00 +15°C° 0 mm 2 mps 764 mmHg 73%
    13:00 +15°C° 0 mm 2 mps 763 mmHg 74%
    14:00 +15°C° 0 mm 2 mps 763 mmHg 75%
    15:00 +15°C° 0 mm 2 mps 763 mmHg 76%
    16:00 +13°C° 0 mm 2 mps 763 mmHg 80%
    17:00 +12°C° 0 mm 2 mps 763 mmHg 83%
    18:00 +10°C° 0 mm 2 mps 763 mmHg 87%
    19:00 +9°C° 0 mm 2 mps 763 mmHg 88%
    20:00 +10°C° 0 mm 1 mps 763 mmHg 88%
    21:00 +9°C° 0 mm 1 mps 763 mmHg 89%
    22:00 +9°C° 0 mm 1 mps 763 mmHg 89%
    23:00 +9°C° 0 mm 1 mps 763 mmHg 89%

    23 October, Wednesday

    Time Temperature Precipitation Wind Pressure Humidity
    00:00 +8°C° 0 mm 0 mps 763 mmHg 89%
    01:00 +10°C° 0 mm 1 mps 762 mmHg 87%
    02:00 +10°C° 0 mm 1 mps 762 mmHg 86%
    03:00 +10°C° 0 mm 2 mps 761 mmHg 85%
    04:00 +11°C° 0 mm 1 mps 761 mmHg 85%
    05:00 +11°C° 0 mm 1 mps 761 mmHg 86%
    06:00 +11°C° 0 mm 1 mps 761 mmHg 86%
    07:00 +11°C° 0 mm 1 mps 760 mmHg 84%
    08:00 +12°C° 0 mm 1 mps 760 mmHg 82%
    09:00 +13°C° 0 mm 2 mps 760 mmHg 79%
    10:00 +14°C° 0 mm 2 mps 759 mmHg 75%
    11:00 +15°C° 0 mm 1 mps 759 mmHg 71%
    12:00 +16°C° 0 mm 1 mps 759 mmHg 67%
    13:00 +16°C° 0 mm 1 mps 758 mmHg 70%
    14:00 +16°C° 0 mm 1 mps 758 mmHg 72%
    15:00 +16°C° 0 mm 1 mps 757 mmHg 74%
    16:00 +15°C° 0 mm 1 mps 757 mmHg 78%
    17:00 +14°C° 0 mm 1 mps 757 mmHg 81%
    18:00 +14°C° 0 mm 1 mps 757 mmHg 84%
    19:00 +13°C° 0 mm 1 mps 757 mmHg 85%
    20:00 +13°C° 0 mm 1 mps 757 mmHg 86%
    21:00 +13°C° 0 mm 1 mps 757 mmHg 87%
    22:00 +12°C° 0 mm 0 mps 757 mmHg 88%
    23:00 +12°C° 0 mm 0 mps 756 mmHg 89%

    24 October, Thursday

    Time Temperature Precipitation Wind Pressure Humidity
    00:00 +11°C° 0 mm 0 mps 756 mmHg 91%
    01:00 +11°C° 0 mm 0 mps 756 mmHg 91%
    02:00 +12°C° 0 mm 0 mps 756 mmHg 90%
    03:00 +12°C° 0 mm 0 mps 756 mmHg 90%
    04:00 +13°C° 0.1 mm 1 mps 756 mmHg 91%
    05:00 +13°C° 0.1 mm 1 mps 756 mmHg 92%
    06:00 +13°C° 0.1 mm 1 mps 757 mmHg 92%
    07:00 +13°C° 0 mm 0 mps 757 mmHg 90%
    08:00 +13°C° 0 mm 0 mps 757 mmHg 87%
    09:00 +14°C° 0 mm 0 mps 757 mmHg 85%
    10:00 +15°C° 0 mm 0 mps 757 mmHg 81%
    11:00 +19°C° 0 mm 1 mps 758 mmHg 77%
    12:00 +20°C° 0 mm 1 mps 758 mmHg 74%
    13:00 +19°C° 0 mm 2 mps 758 mmHg 75%
    14:00 +19°C° 0 mm 2 mps 758 mmHg 77%
    15:00 +18°C° 0 mm 2 mps 758 mmHg 79%
    16:00 +17°C° 0 mm 2 mps 758 mmHg 84%
    17:00 +16°C° 0 mm 2 mps 758 mmHg 89%
    18:00 +14°C° 0 mm 2 mps 759 mmHg 94%
    19:00 +14°C° 0 mm 2 mps 759 mmHg 94%
    20:00 +13°C° 0 mm 2 mps 760 mmHg 94%
    21:00 +12°C° 0 mm 2 mps 760 mmHg 94%
    22:00 +12°C° 0 mm 2 mps 761 mmHg 93%
    23:00 +10°C° 0 mm 2 mps 761 mmHg 93%
    Show more